Location: Jaite
(41.2884°N, 81.5737°W)
Time: 00:07:29
(UTC+00:00)

Lacrosse 5 rocket - Pass Details

Date: 15 November 2025
Orbit: 406 x 493 km, 57.0° (Epoch: 11 December)

Event Time Altitude Azimuth Distance (km) Brightness Sun altitude
Exits shadow 10:37:14 - 359° (N) 1,553 3.5 -18.4°
Reaches altitude 10° 10:37:31 10° 3° (N) 1,510 3.5 -18.3°
Maximum altitude 10:38:39 11° 23° (NNE) 1,425 3.6 -18.1°
Drops below altitude 10° 10:39:45 10° 43° (NE) 1,492 4.0 -17.9°
Sets 10:43:07 0° 80° (E) 2,340 5.9 -17.3°
